TimeCST,TemperatureF,Dew PointF,Humidity,Sea Level PressureIn,VisibilityMPH,Wind Direction,Wind SpeedMPH,Gust SpeedMPH,PrecipitationIn,Events,Conditions,WindDirDegrees,DateUTC
12:53 AM,37.9,26.1,62,29.95,10.0,North,3.5,-,N/A,,Clear,350,2012-12-24 06:53:00
1:53 AM,35.1,26.1,70,29.96,10.0,NW,3.5,-,N/A,,Clear,320,2012-12-24 07:53:00
2:53 AM,35.1,25.0,67,29.97,10.0,NNW,3.5,-,N/A,,Clear,330,2012-12-24 08:53:00
3:53 AM,33.1,24.1,70,29.97,10.0,NNW,3.5,-,N/A,,Clear,330,2012-12-24 09:53:00
4:53 AM,32.0,24.1,73,29.99,9.0,NW,3.5,-,N/A,,Clear,320,2012-12-24 10:53:00
6:53 AM,28.0,23.0,81,30.04,7.0,North,4.6,-,N/A,,Clear,350,2012-12-24 12:53:00
7:53 AM,28.0,21.9,78,30.06,5.0,Calm,Calm,-,N/A,,Haze,0,2012-12-24 13:53:00
8:53 AM,32.0,23.0,69,30.06,5.0,NNW,8.1,-,N/A,,Haze,330,2012-12-24 14:53:00
9:53 AM,35.1,23.0,61,30.07,5.0,North,8.1,-,N/A,,Haze,350,2012-12-24 15:53:00
10:53 AM,39.0,24.1,55,30.06,5.0,NNE,4.6,-,N/A,,Haze,30,2012-12-24 16:53:00
11:53 AM,43.0,24.1,47,30.03,5.0,Variable,4.6,-,N/A,,Haze,0,2012-12-24 17:53:00
12:53 PM,45.0,24.1,44,29.97,5.0,North,3.5,-,N/A,,Haze,360,2012-12-24 18:53:00
1:53 PM,48.0,24.1,39,29.91,5.0,East,4.6,-,N/A,,Haze,100,2012-12-24 19:53:00
2:53 PM,48.0,24.1,39,29.91,5.0,Calm,Calm,-,N/A,,Haze,0,2012-12-24 20:53:00
3:53 PM,48.9,23.0,36,29.90,7.0,Calm,Calm,-,N/A,,Clear,0,2012-12-24 21:53:00
4:53 PM,48.0,24.1,39,29.89,7.0,NNE,5.8,-,N/A,,Clear,30,2012-12-24 22:53:00
5:53 PM,46.0,24.1,42,29.88,8.0,NE,5.8,-,N/A,,Clear,40,2012-12-24 23:53:00
6:53 PM,44.1,24.1,45,29.87,9.0,ENE,3.5,-,N/A,,Clear,60,2012-12-25 00:53:00
7:53 PM,43.0,25.0,49,29.87,9.0,Calm,Calm,-,N/A,,Clear,0,2012-12-25 01:53:00
8:53 PM,43.0,26.1,51,29.85,9.0,NE,3.5,-,N/A,,Scattered Clouds,40,2012-12-25 02:53:00
9:53 PM,41.0,27.0,57,29.85,9.0,ENE,3.5,-,N/A,,Mostly Cloudy,70,2012-12-25 03:53:00
10:53 PM,42.1,28.0,58,29.83,9.0,NNE,4.6,-,N/A,,Mostly Cloudy,30,2012-12-25 04:53:00
11:53 PM,42.1,28.9,60,29.81,9.0,NE,4.6,-,N/A,,Scattered Clouds,50,2012-12-25 05:53:00